Time,TemperatureF,DewpointF,PressureIn,WindDirection,WindDirectionDegrees,WindSpeedMPH,WindSpeedGustMPH,Humidity,HourlyPrecipIn,Conditions,Clouds,dailyrainin,SoftwareType,DateUTC
2013-05-30 00:03:00,69.0,60.0,30.11,SW,221,0.0,1.0,74,0.00,,,0.00,,2013-05-30 04:03:00,
2013-05-30 00:13:00,69.0,60.0,30.11,SW,221,0.0,1.0,74,0.00,,,0.00,,2013-05-30 04:13:00,
2013-05-30 00:23:00,69.0,60.0,30.11,SW,215,0.0,0.0,74,0.00,,,0.00,,2013-05-30 04:23:00,
2013-05-30 00:33:00,68.0,60.0,30.11,West,276,0.0,1.0,75,0.00,,,0.00,,2013-05-30 04:33:00,
2013-05-30 00:42:00,68.0,60.0,30.11,West,276,0.0,1.0,75,0.00,,,0.00,,2013-05-30 04:42:00,
2013-05-30 00:53:00,68.0,60.0,30.12,West,276,0.0,0.0,76,0.00,,,0.00,,2013-05-30 04:53:00,
2013-05-30 01:02:00,67.0,60.0,30.12,West,276,0.0,0.0,77,0.00,,,0.00,,2013-05-30 05:02:00,
2013-05-30 01:12:00,67.0,60.0,30.12,West,276,0.0,0.0,77,0.00,,,0.00,,2013-05-30 05:12:00,
2013-05-30 01:22:00,66.0,60.0,30.12,West,276,0.0,0.0,80,0.00,,,0.00,,2013-05-30 05:22:00,
2013-05-30 01:32:00,66.0,60.0,30.11,West,276,0.0,0.0,81,0.00,,,0.00,,2013-05-30 05:32:00,
2013-05-30 01:42:00,66.0,60.0,30.11,West,276,0.0,0.0,81,0.00,,,0.00,,2013-05-30 05:42:00,
2013-05-30 01:52:00,65.0,60.0,30.12,West,276,0.0,0.0,83,0.00,,,0.00,,2013-05-30 05:52:00,
2013-05-30 02:01:00,64.0,59.0,30.12,West,276,0.0,0.0,84,0.00,,,0.00,,2013-05-30 06:01:00,
2013-05-30 02:12:00,64.0,59.0,30.12,West,276,0.0,0.0,84,0.00,,,0.00,,2013-05-30 06:12:00,
2013-05-30 02:22:00,64.0,59.0,30.12,West,276,0.0,0.0,85,0.00,,,0.00,,2013-05-30 06:22:00,
2013-05-30 02:32:00,63.0,59.0,30.12,West,276,0.0,0.0,86,0.00,,,0.00,,2013-05-30 06:32:00,
2013-05-30 02:42:00,63.0,59.0,30.12,West,276,0.0,0.0,86,0.00,,,0.00,,2013-05-30 06:42:00,
2013-05-30 02:52:00,62.0,58.0,30.12,West,276,0.0,0.0,87,0.00,,,0.00,,2013-05-30 06:52:00,
2013-05-30 03:01:00,62.0,58.0,30.12,West,276,0.0,0.0,88,0.00,,,0.00,,2013-05-30 07:01:00,
2013-05-30 03:12:00,62.0,58.0,30.12,West,276,0.0,0.0,88,0.00,,,0.00,,2013-05-30 07:12:00,
2013-05-30 03:22:00,61.0,58.0,30.11,West,276,0.0,0.0,89,0.00,,,0.00,,2013-05-30 07:22:00,
2013-05-30 03:32:00,61.0,58.0,30.12,West,276,0.0,0.0,89,0.00,,,0.00,,2013-05-30 07:32:00,
2013-05-30 03:42:00,61.0,58.0,30.12,West,276,0.0,0.0,89,0.00,,,0.00,,2013-05-30 07:42:00,
2013-05-30 03:52:00,61.0,58.0,30.12,West,276,0.0,0.0,90,0.00,,,0.00,,2013-05-30 07:52:00,
2013-05-30 04:02:00,60.0,57.0,30.12,West,276,0.0,0.0,90,0.00,,,0.00,,2013-05-30 08:02:00,
2013-05-30 04:11:00,60.0,57.0,30.12,West,276,0.0,0.0,90,0.00,,,0.00,,2013-05-30 08:11:00,
2013-05-30 04:22:00,60.0,57.0,30.13,West,276,0.0,0.0,90,0.00,,,0.00,,2013-05-30 08:22:00,
2013-05-30 04:32:00,60.0,57.0,30.13,West,276,0.0,0.0,91,0.00,,,0.00,,2013-05-30 08:32:00,
2013-05-30 04:42:00,60.0,57.0,30.13,West,276,0.0,0.0,91,0.00,,,0.00,,2013-05-30 08:42:00,
2013-05-30 04:52:00,59.0,57.0,30.13,West,276,0.0,0.0,92,0.00,,,0.00,,2013-05-30 08:52:00,
2013-05-30 05:01:00,59.0,57.0,30.13,West,276,0.0,0.0,92,0.00,,,0.00,,2013-05-30 09:01:00,
2013-05-30 05:11:00,59.0,57.0,30.13,West,276,0.0,0.0,92,0.00,,,0.00,,2013-05-30 09:11:00,
2013-05-30 05:22:00,59.0,57.0,30.14,West,276,0.0,0.0,92,0.00,,,0.00,,2013-05-30 09:22:00,
2013-05-30 05:33:00,58.0,56.0,30.14,West,276,0.0,0.0,93,0.00,,,0.00,,2013-05-30 09:33:00,
2013-05-30 05:43:00,58.0,56.0,30.14,West,276,0.0,0.0,93,0.00,,,0.00,,2013-05-30 09:43:00,
2013-05-30 05:53:00,58.0,56.0,30.14,West,276,0.0,0.0,93,0.00,,,0.00,,2013-05-30 09:53:00,
2013-05-30 06:03:00,58.0,56.0,30.14,West,276,0.0,0.0,93,0.00,,,0.00,,2013-05-30 10:03:00,
2013-05-30 06:13:00,58.0,56.0,30.14,West,276,0.0,0.0,93,0.00,,,0.00,,2013-05-30 10:13:00,
2013-05-30 06:23:00,57.0,55.0,30.14,West,276,0.0,0.0,94,0.00,,,0.00,,2013-05-30 10:23:00,
2013-05-30 06:33:00,57.0,55.0,30.15,West,276,0.0,0.0,94,0.00,,,0.00,,2013-05-30 10:33:00,
2013-05-30 06:42:00,57.0,55.0,30.15,West,276,0.0,0.0,94,0.00,,,0.00,,2013-05-30 10:42:00,
2013-05-30 06:52:00,57.0,55.0,30.15,West,276,0.0,0.0,94,0.00,,,0.00,,2013-05-30 10:52:00,
2013-05-30 07:03:00,57.0,56.0,30.16,West,276,0.0,0.0,95,0.00,,,0.00,,2013-05-30 11:03:00,
2013-05-30 07:12:00,57.0,56.0,30.16,West,276,0.0,0.0,95,0.00,,,0.00,,2013-05-30 11:12:00,
2013-05-30 07:22:00,58.0,57.0,30.16,West,276,0.0,0.0,95,0.00,,,0.00,,2013-05-30 11:22:00,
2013-05-30 07:32:00,59.0,58.0,30.16,West,276,0.0,0.0,96,0.00,,,0.00,,2013-05-30 11:32:00,
2013-05-30 07:42:00,59.0,58.0,30.16,West,276,0.0,0.0,96,0.00,,,0.00,,2013-05-30 11:42:00,
2013-05-30 07:52:00,60.0,59.0,30.16,West,276,0.0,0.0,96,0.00,,,0.00,,2013-05-30 11:52:00,
2013-05-30 08:02:00,62.0,60.0,30.16,West,276,0.0,1.0,93,0.00,,,0.00,,2013-05-30 12:02:00,
2013-05-30 08:11:00,62.0,60.0,30.16,West,276,0.0,1.0,93,0.00,,,0.00,,2013-05-30 12:11:00,
2013-05-30 08:22:00,64.0,60.0,30.16,West,276,0.0,1.0,88,0.00,,,0.00,,2013-05-30 12:22:00,
2013-05-30 08:32:00,66.0,61.0,30.16,West,271,0.0,2.0,83,0.00,,,0.00,,2013-05-30 12:32:00,
2013-05-30 08:42:00,66.0,61.0,30.16,West,271,0.0,2.0,83,0.00,,,0.00,,2013-05-30 12:42:00,
2013-05-30 08:52:00,67.0,61.0,30.17,WSW,240,1.0,4.0,81,0.00,,,0.00,,2013-05-30 12:52:00,
2013-05-30 09:01:00,68.0,61.0,30.17,WSW,238,1.0,6.0,79,0.00,,,0.00,,2013-05-30 13:01:00,
2013-05-30 09:11:00,68.0,61.0,30.17,WSW,238,1.0,6.0,79,0.00,,,0.00,,2013-05-30 13:11:00,
2013-05-30 09:22:00,68.0,61.0,30.18,WSW,257,2.0,7.0,77,0.00,,,0.00,,2013-05-30 13:22:00,
2013-05-30 09:32:00,69.0,61.0,30.18,WNW,297,4.0,7.0,76,0.00,,,0.00,,2013-05-30 13:32:00,
2013-05-30 09:42:00,69.0,61.0,30.18,WNW,297,4.0,7.0,76,0.00,,,0.00,,2013-05-30 13:42:00,
2013-05-30 09:52:00,69.0,61.0,30.18,WSW,253,3.0,7.0,77,0.00,,,0.00,,2013-05-30 13:52:00,
2013-05-30 10:02:00,70.0,62.0,30.18,WNW,296,4.0,6.0,75,0.00,,,0.00,,2013-05-30 14:02:00,
2013-05-30 10:11:00,70.0,62.0,30.18,WNW,296,4.0,6.0,75,0.00,,,0.00,,2013-05-30 14:11:00,
2013-05-30 10:22:00,70.0,61.0,30.18,WNW,298,3.0,8.0,74,0.00,,,0.00,,2013-05-30 14:22:00,
2013-05-30 10:32:00,72.0,62.0,30.18,WSW,250,2.0,6.0,70,0.00,,,0.00,,2013-05-30 14:32:00,
2013-05-30 10:42:00,72.0,62.0,30.18,WSW,250,2.0,6.0,70,0.00,,,0.00,,2013-05-30 14:42:00,
2013-05-30 10:52:00,73.0,63.0,30.18,West,273,1.0,7.0,70,0.00,,,0.00,,2013-05-30 14:52:00,
2013-05-30 11:01:00,74.0,63.0,30.18,NW,322,2.0,8.0,68,0.00,,,0.00,,2013-05-30 15:01:00,
2013-05-30 11:11:00,74.0,63.0,30.18,NW,322,2.0,8.0,68,0.00,,,0.00,,2013-05-30 15:11:00,
2013-05-30 11:22:00,74.0,61.0,30.18,WSW,244,2.0,8.0,65,0.00,,,0.00,,2013-05-30 15:22:00,
2013-05-30 11:33:00,76.0,62.0,30.17,NNW,328,2.0,4.0,63,0.00,,,0.00,,2013-05-30 15:33:00,
2013-05-30 11:42:00,76.0,62.0,30.17,NNW,328,2.0,4.0,63,0.00,,,0.00,,2013-05-30 15:42:00,
2013-05-30 11:53:00,77.0,62.0,30.17,West,269,2.0,5.0,60,0.00,,,0.00,,2013-05-30 15:53:00,
2013-05-30 12:03:00,78.0,62.0,30.17,SW,222,2.0,6.0,58,0.00,,,0.00,,2013-05-30 16:03:00,
2013-05-30 12:12:00,78.0,62.0,30.17,SW,222,2.0,6.0,58,0.00,,,0.00,,2013-05-30 16:12:00,
2013-05-30 12:23:00,79.0,59.0,30.16,WSW,243,4.0,9.0,50,0.00,,,0.00,,2013-05-30 16:23:00,
2013-05-30 12:33:00,80.0,59.0,30.16,West,259,2.0,8.0,49,0.00,,,0.00,,2013-05-30 16:33:00,
2013-05-30 12:42:00,80.0,59.0,30.16,West,259,2.0,8.0,49,0.00,,,0.00,,2013-05-30 16:42:00,
2013-05-30 12:53:00,81.0,60.0,30.15,WNW,288,2.0,9.0,49,0.00,,,0.00,,2013-05-30 16:53:00,
2013-05-30 13:02:00,81.0,58.0,30.15,SW,214,2.0,8.0,45,0.00,,,0.00,,2013-05-30 17:02:00,
2013-05-30 13:12:00,81.0,58.0,30.15,SW,214,2.0,8.0,45,0.00,,,0.00,,2013-05-30 17:12:00,
2013-05-30 13:22:00,81.0,55.0,30.14,WNW,284,2.0,10.0,41,0.00,,,0.00,,2013-05-30 17:22:00,
2013-05-30 13:32:00,82.0,58.0,30.14,West,269,4.0,7.0,44,0.00,,,0.00,,2013-05-30 17:32:00,
2013-05-30 13:42:00,82.0,58.0,30.14,West,269,4.0,7.0,44,0.00,,,0.00,,2013-05-30 17:42:00,
2013-05-30 13:52:00,83.0,58.0,30.13,West,275,2.0,6.0,42,0.00,,,0.00,,2013-05-30 17:52:00,
2013-05-30 14:02:00,83.0,58.0,30.13,South,182,2.0,11.0,42,0.00,,,0.00,,2013-05-30 18:02:00,
2013-05-30 14:11:00,83.0,58.0,30.13,South,182,2.0,11.0,42,0.00,,,0.00,,2013-05-30 18:11:00,
2013-05-30 14:22:00,84.0,56.0,30.12,SSW,207,2.0,7.0,39,0.00,,,0.00,,2013-05-30 18:22:00,
2013-05-30 14:32:00,85.0,55.0,30.12,South,172,2.0,8.0,36,0.00,,,0.00,,2013-05-30 18:32:00,
2013-05-30 14:43:00,85.0,55.0,30.12,South,172,2.0,8.0,36,0.00,,,0.00,,2013-05-30 18:43:00,
2013-05-30 14:52:00,84.0,56.0,30.11,SSW,212,4.0,10.0,38,0.00,,,0.00,,2013-05-30 18:52:00,
2013-05-30 15:02:00,84.0,56.0,30.11,SSW,212,4.0,10.0,38,0.00,,,0.00,,2013-05-30 19:02:00,
2013-05-30 15:12:00,84.0,56.0,30.11,SSW,212,4.0,10.0,38,0.00,,,0.00,,2013-05-30 19:12:00,
2013-05-30 15:23:00,85.0,54.0,30.11,NW,320,4.0,9.0,35,0.00,,,0.00,,2013-05-30 19:23:00,
2013-05-30 15:32:00,85.0,52.0,30.10,SW,221,4.0,8.0,32,0.00,,,0.00,,2013-05-30 19:32:00,
2013-05-30 15:42:00,85.0,52.0,30.10,SW,221,4.0,8.0,32,0.00,,,0.00,,2013-05-30 19:42:00,
2013-05-30 15:53:00,86.0,54.0,30.10,WSW,258,1.0,6.0,34,0.00,,,0.00,,2013-05-30 19:53:00,
2013-05-30 16:02:00,85.0,56.0,30.09,WNW,294,3.0,8.0,37,0.00,,,0.00,,2013-05-30 20:02:00,
2013-05-30 16:11:00,85.0,56.0,30.09,WNW,294,3.0,8.0,37,0.00,,,0.00,,2013-05-30 20:11:00,
2013-05-30 16:23:00,85.0,56.0,30.09,WNW,294,3.0,8.0,37,0.00,,,0.00,,2013-05-30 20:23:00,
2013-05-30 16:33:00,85.0,52.0,30.09,SW,219,4.0,11.0,32,0.00,,,0.00,,2013-05-30 20:33:00,
2013-05-30 16:42:00,85.0,52.0,30.09,SW,219,4.0,11.0,32,0.00,,,0.00,,2013-05-30 20:42:00,
2013-05-30 16:52:00,85.0,52.0,30.09,SW,219,4.0,11.0,32,0.00,,,0.00,,2013-05-30 20:52:00,
2013-05-30 17:01:00,85.0,59.0,30.08,WNW,284,2.0,10.0,41,0.00,,,0.00,,2013-05-30 21:01:00,
2013-05-30 17:11:00,85.0,59.0,30.08,WNW,284,2.0,10.0,41,0.00,,,0.00,,2013-05-30 21:11:00,
2013-05-30 17:22:00,85.0,59.0,30.08,WNW,284,2.0,10.0,41,0.00,,,0.00,,2013-05-30 21:22:00,
2013-05-30 17:33:00,85.0,58.0,30.09,WNW,285,6.0,11.0,40,0.00,,,0.00,,2013-05-30 21:33:00,
2013-05-30 17:43:00,85.0,58.0,30.09,WNW,285,6.0,11.0,40,0.00,,,0.00,,2013-05-30 21:43:00,
2013-05-30 17:53:00,85.0,58.0,30.09,WNW,285,6.0,11.0,40,0.00,,,0.00,,2013-05-30 21:53:00,
2013-05-30 18:02:00,83.0,59.0,30.08,WSW,256,4.0,9.0,44,0.00,,,0.00,,2013-05-30 22:02:00,
2013-05-30 18:12:00,83.0,59.0,30.08,WSW,256,4.0,9.0,44,0.00,,,0.00,,2013-05-30 22:12:00,
2013-05-30 18:23:00,83.0,59.0,30.08,WSW,256,4.0,9.0,44,0.00,,,0.00,,2013-05-30 22:23:00,
2013-05-30 18:33:00,82.0,60.0,30.08,West,265,4.0,9.0,48,0.00,,,0.00,,2013-05-30 22:33:00,
2013-05-30 18:42:00,82.0,60.0,30.08,West,265,4.0,9.0,48,0.00,,,0.00,,2013-05-30 22:42:00,
2013-05-30 18:52:00,82.0,60.0,30.08,West,265,4.0,9.0,48,0.00,,,0.00,,2013-05-30 22:52:00,
2013-05-30 19:02:00,81.0,63.0,30.08,SW,227,4.0,9.0,55,0.00,,,0.00,,2013-05-30 23:02:00,
2013-05-30 19:11:00,81.0,63.0,30.08,SW,227,4.0,9.0,55,0.00,,,0.00,,2013-05-30 23:11:00,
2013-05-30 19:22:00,81.0,63.0,30.08,SW,227,4.0,9.0,55,0.00,,,0.00,,2013-05-30 23:22:00,
2013-05-30 19:32:00,80.0,62.0,30.08,SE,142,3.0,8.0,55,0.00,,,0.00,,2013-05-30 23:32:00,
2013-05-30 19:42:00,80.0,62.0,30.08,SE,142,3.0,8.0,55,0.00,,,0.00,,2013-05-30 23:42:00,
2013-05-30 19:52:00,80.0,62.0,30.08,SE,142,3.0,8.0,55,0.00,,,0.00,,2013-05-30 23:52:00,
2013-05-30 20:01:00,79.0,62.0,30.08,SSW,209,2.0,6.0,57,0.00,,,0.00,,2013-05-31 00:01:00,
2013-05-30 20:11:00,79.0,62.0,30.08,SSW,209,2.0,6.0,57,0.00,,,0.00,,2013-05-31 00:11:00,
2013-05-30 20:22:00,79.0,62.0,30.08,SSW,209,2.0,6.0,57,0.00,,,0.00,,2013-05-31 00:22:00,
2013-05-30 20:32:00,77.0,62.0,30.08,South,179,1.0,7.0,60,0.00,,,0.00,,2013-05-31 00:32:00,
2013-05-30 20:42:00,77.0,62.0,30.08,South,179,1.0,7.0,60,0.00,,,0.00,,2013-05-31 00:42:00,
2013-05-30 20:52:00,76.0,62.0,30.09,SW,236,1.0,6.0,62,0.00,,,0.00,,2013-05-31 00:52:00,
2013-05-30 21:01:00,75.0,62.0,30.08,SE,136,1.0,4.0,64,0.00,,,0.00,,2013-05-31 01:01:00,
2013-05-30 21:12:00,75.0,62.0,30.08,SE,136,1.0,4.0,64,0.00,,,0.00,,2013-05-31 01:12:00,
2013-05-30 21:21:00,74.0,61.0,30.08,SE,136,0.0,5.0,65,0.00,,,0.00,,2013-05-31 01:21:00,
2013-05-30 21:32:00,73.0,61.0,30.09,SSW,197,0.0,4.0,67,0.00,,,0.00,,2013-05-31 01:32:00,
2013-05-30 21:42:00,73.0,62.0,30.09,South,186,0.0,2.0,68,0.00,,,0.00,,2013-05-31 01:42:00,
2013-05-30 21:52:00,73.0,62.0,30.09,South,186,0.0,2.0,68,0.00,,,0.00,,2013-05-31 01:52:00,
2013-05-30 22:02:00,72.0,61.0,30.09,South,188,0.0,2.0,69,0.00,,,0.00,,2013-05-31 02:02:00,
2013-05-30 22:11:00,72.0,61.0,30.09,South,188,0.0,2.0,69,0.00,,,0.00,,2013-05-31 02:11:00,
2013-05-30 22:22:00,71.0,61.0,30.10,South,186,0.0,1.0,70,0.00,,,0.00,,2013-05-31 02:22:00,
2013-05-30 22:32:00,71.0,62.0,30.11,South,186,0.0,0.0,72,0.00,,,0.00,,2013-05-31 02:32:00,
2013-05-30 22:42:00,71.0,62.0,30.11,South,186,0.0,0.0,72,0.00,,,0.00,,2013-05-31 02:42:00,
2013-05-30 22:51:00,70.0,61.0,30.12,South,186,0.0,1.0,74,0.00,,,0.00,,2013-05-31 02:51:00,
2013-05-30 23:01:00,69.0,61.0,30.12,South,186,0.0,0.0,75,0.00,,,0.00,,2013-05-31 03:01:00,
2013-05-30 23:11:00,69.0,61.0,30.12,South,186,0.0,0.0,75,0.00,,,0.00,,2013-05-31 03:11:00,
2013-05-30 23:21:00,68.0,61.0,30.12,South,186,0.0,0.0,77,0.00,,,0.00,,2013-05-31 03:21:00,
2013-05-30 23:33:00,67.0,60.0,30.12,South,186,0.0,0.0,79,0.00,,,0.00,,2013-05-31 03:33:00,
2013-05-30 23:43:00,67.0,60.0,30.12,South,186,0.0,0.0,79,0.00,,,0.00,,2013-05-31 03:43:00,
2013-05-30 23:53:00,67.0,61.0,30.11,South,186,0.0,0.0,80,0.00,,,0.00,,2013-05-31 03:53:00,